Dayton, OH

9:57 PM EST on January 22, 2017 (GMT -0500)
Wright-Patterson Air Force Base

Weather History for KFFO - September, 2013

Change the Weather History Date:

Friday, September 13, 2013

  Actual Average Record
Temperature  
Mean Temperature 59 °F -  
Max Temperature 66 °F 76 °F 88 °F (2010)
Min Temperature 52 °F 53 °F 48 °F (1998)
Degree Days  
Heating Degree Days 6    
Growing Degree Days 9 (Base 50)    
Moisture  
Dew Point 47 °F    
Average Humidity 67    
Maximum Humidity 87    
Minimum Humidity 44    
Precipitation  
Precipitation 0.01 in - - ()
Sea Level Pressure  
Sea Level Pressure 30.05 in    
Wind  
Wind Speed 9 mph (NNW)    
Max Wind Speed 15 mph    
Max Gust Speed 24 mph    
Visibility 10 miles    
Events      
Averages and records for this station are not official NWS values.
T = Trace of Precipitation, MM = Missing Value Source: NWS Daily Summary

Daily Weather History Graph

Daily Weather History Graph

Search for Another Location

Airport or City:

Trip Planner

Search our weather history database for the weather conditions in past years. The results will help you decide how hot, cold, wet, or windy it might be!

Date:

Astronomy

Sep. 13, 2013 Rise Set
Actual Time 7:15 AM EDT 7:47 PM EDT
Civil Twilight 6:48 AM EDT 8:14 PM EDT
Nautical Twilight 6:16 AM EDT 8:46 PM EDT
Astronomical Twilight 5:43 AM EDT 9:19 PM EDT
Moon 3:36 PM EDT (9/13) 12:44 AM EDT (9/13)
Length of Visible Light 13h 26m
Length of Day
12h 32m
First Quarter, 61% of the Moon is Illuminated
Sep 13
First Quarter
Sep 19
Full
Sep 26
Last Quarter
Oct 4
New
Oct 11
First Quarter

Hourly Weather History & Observations

Time (EDT) Temp. Dew Point Humidity Pressure Visibility Wind Dir Wind Speed Gust Speed Precip Events Conditions
12:58 AM 62.6 °F 57.6 °F 84% 29.96 in 10.0 mi North 11.5 mph - 0.01 in   Mostly Cloudy
1:58 AM 60.3 °F 56.5 °F 87% 29.97 in 10.0 mi NNW 8.1 mph - N/A   Clear
2:58 AM 59.0 °F 54.7 °F 86% 29.98 in 10.0 mi NNW 9.2 mph - N/A   Clear
3:58 AM 57.6 °F 52.5 °F 83% 29.99 in 10.0 mi NNW 10.4 mph - N/A   Clear
4:58 AM 56.1 °F 51.6 °F 85% 30.00 in 10.0 mi NW 8.1 mph - N/A   Clear
5:58 AM 55.0 °F 49.6 °F 82% 30.01 in 10.0 mi NNW 9.2 mph - N/A   Clear
6:58 AM 53.2 °F 48.6 °F 84% 30.02 in 10.0 mi North 6.9 mph - N/A   Clear
7:58 AM 53.4 °F 48.6 °F 84% 30.04 in 10.0 mi Variable 4.6 mph - N/A   Clear
8:58 AM 54.9 °F 48.7 °F 80% 30.04 in 10.0 mi NW 12.7 mph - N/A   Partly Cloudy
9:58 AM 57.0 °F 46.6 °F 68% 30.06 in 10.0 mi NNW 10.4 mph - N/A   Partly Cloudy
10:28 AM 59.0 °F 44.6 °F 59% 30.05 in 10.0 mi NNW 12.7 mph 18.4 mph N/A   Mostly Cloudy
10:38 AM 59.0 °F 44.6 °F 59% 30.06 in 10.0 mi North 9.2 mph - N/A   Mostly Cloudy
10:48 AM 59.0 °F 44.6 °F 59% - 10.0 mi North - - N/A   Unknown
10:58 AM 58.8 °F 44.8 °F 60% 30.07 in 10.0 mi North 9.2 mph - N/A   Mostly Cloudy
11:58 AM 57.2 °F 48.2 °F 72% 30.09 in 10.0 mi NNW 11.5 mph - N/A   Overcast
12:58 PM 57.2 °F 42.8 °F 59% 30.09 in 10.0 mi NW 9.2 mph - N/A   Overcast
1:58 PM 62.6 °F 45.9 °F 54% 30.06 in 10.0 mi NNW 10.4 mph 17.3 mph N/A   Mostly Cloudy
2:58 PM 64.4 °F 43.5 °F 47% 30.04 in 10.0 mi North 10.4 mph 17.3 mph N/A   Partly Cloudy
3:41 PM 62.6 °F 42.8 °F 48% 30.03 in 10.0 mi North 13.8 mph 19.6 mph N/A   Overcast
3:58 PM 63.5 °F 41.4 °F 44% 30.04 in 10.0 mi North 15.0 mph 24.2 mph N/A   Overcast
4:58 PM 65.8 °F 44.8 °F 47% 30.05 in 10.0 mi NNW 11.5 mph - N/A   Scattered Clouds
5:58 PM 62.6 °F 42.8 °F 48% 30.06 in 10.0 mi NNW 8.1 mph - N/A   Overcast
6:58 PM 61.7 °F 43.9 °F 52% 30.07 in 10.0 mi NNW 4.6 mph - N/A   Clear
7:58 PM 59.0 °F 44.4 °F 58% 30.08 in 10.0 mi NNW 5.8 mph - N/A   Clear
8:58 PM 56.8 °F 45.0 °F 64% 30.10 in 10.0 mi North 4.6 mph - N/A   Clear
9:58 PM 54.9 °F 44.6 °F 68% 30.11 in 10.0 mi North 6.9 mph - N/A   Clear
10:58 PM 53.2 °F 43.9 °F 71% 30.11 in 10.0 mi North 6.9 mph - N/A   Clear
11:58 PM 52.2 °F 44.1 °F 74% 30.11 in 10.0 mi North 5.8 mph - N/A   Clear